Regional Weather Roundup
Issued by NWS

Home | Current Version | Previous Version | Text Only | Print | Product List | Glossary On
Versions: 1 2 3 4 5 6 7 8 9 10 11 12 13 14 15 16 17 18 19 20 21 22 23 24 25 26 27 28 29 30 31 32 33 34 35 36 37 38 39 40 41 42 43 44 45 46 47 48 49 50
000
ASUS42 KKEY 280210
RWRKEY

FLORIDA REGIONAL WEATHER ROUNDUP FOR THE FLORIDA KEYS
NATIONAL WEATHER SERVICE KEY WEST FLORIDA
1000 PM EDT SAT AUG 27 2016

...SOUTH FLORIDA AND THE KEYS...

CITY           SKY/WX    TMP DP  RH WIND       PRES   REMARKS
FORT MYERS     CLOUDY    79  76  90 NE8       29.91F
SW REGIONAL AP PTCLDY    79  73  82 NE8       29.92F
NAPLES         CLOUDY    80  77  90 NE6       29.90F
MIAMI          CLOUDY    85  77  77 NE13      29.90R HX  95
WEST KENDALL   CLOUDY    84  77  79 NE7       29.90R HX  94
HOMESTEAD      CLOUDY    84  76  77 NE9       29.89R HX  93
MARATHON       PTCLDY    85  77  77 NE10      29.87R HX  95
BOCA CHICA NAS NOT AVBL
KEY WEST INTL  PTCLDY    81  79  94 NE8       29.89R HX  90

...INTERNATIONAL WEATHER...

CITY           SKY/WX    TMP DP  RH WIND       PRES   REMARKS
NASSAU BAHAMAS MOCLDY    84  75  74 SE6       29.93R HX  92
CANCUN MEXICO  PTCLDY    82  81  94 CALM      29.89R HX  95
COZUMEL MEXICO PTCLDY    79  77  94 NE5       29.89R

ADJACENT COASTAL WATERS...

STATION/POSITION TIME  SKY/WX   TEMP    WIND        PRES    WAVE
                                AIR SEA DIR/SP/G            HT/PER
                 (UTC)          (F)     (DEG/KT/KT) (MB)    (FT/S)
PULASKI SHOAL LI 0200            84      60/ 10/ 11 1012.5R
SAND KEY         0150            85      60/ 12/ 14 1012.5R
LONG KEY         0200            85 87   50/ 14/ 15 1012.0R
FOWEY ROCKS      0200            85 86   70/ 15/ 17 1013.0R

$$



USA.gov is the U.S. government's official web portal to all federal, state and local government web resources and services.